When you browse on this site, cookies collect data to enhance your experience and personalize the content and advertising you see.
Visit our Privacy Policy to learn more. By continuing to use the site, you agree to this use of cookies and data.
  • In Portugal
  • List of Countries
  • For 7 days
  • Water Temperature
  • Weather Map
  • Weather Widgets
  • user-avatar
    Login

    Hourly Weather Cahur

    Today, 31 May, Sunday

    Time Temperature Precipitation Wind Pressure Humidity
    00:00 +10°C° 0.1 mm 0 mps 608 mmHg 80%
    01:00 +9°C° 0.1 mm 0 mps 608 mmHg 84%
    02:00 +10°C° 0.1 mm 1 mps 608 mmHg 87%
    03:00 +10°C° 0 mm 1 mps 608 mmHg 90%
    04:00 +11°C° 0 mm 1 mps 608 mmHg 89%
    05:00 +12°C° 0 mm 1 mps 609 mmHg 88%
    06:00 +13°C° 0 mm 1 mps 610 mmHg 88%
    07:00 +14°C° 0 mm 1 mps 610 mmHg 82%
    08:00 +15°C° 0 mm 2 mps 611 mmHg 77%
    09:00 +16°C° 0 mm 3 mps 611 mmHg 69%
    10:00 +17°C° 0 mm 3 mps 611 mmHg 67%
    11:00 +18°C° 0 mm 3 mps 612 mmHg 64%
    12:00 +18°C° 0 mm 3 mps 612 mmHg 62%
    13:00 +18°C° 0.1 mm 3 mps 611 mmHg 60%
    14:00 +18°C° 0.1 mm 3 mps 611 mmHg 59%
    15:00 +18°C° 0 mm 3 mps 611 mmHg 60%
    16:00 +17°C° 0 mm 3 mps 611 mmHg 63%
    17:00 +17°C° 0 mm 3 mps 610 mmHg 66%
    18:00 +16°C° 0 mm 2 mps 610 mmHg 70%
    19:00 +14°C° 0 mm 2 mps 609 mmHg 76%
    20:00 +12°C° 0 mm 2 mps 609 mmHg 81%
    21:00 +10°C° 0 mm 1 mps 608 mmHg 87%
    22:00 +10°C° 0 mm 1 mps 608 mmHg 86%
    23:00 +10°C° 0 mm 1 mps 607 mmHg 84%

    Tomorrow, 1 June, Monday

    Time Temperature Precipitation Wind Pressure Humidity
    00:00 +8°C° 0 mm 2 mps 607 mmHg 83%
    01:00 +9°C° 0 mm 1 mps 607 mmHg 78%
    02:00 +9°C° 0 mm 1 mps 607 mmHg 73%
    03:00 +9°C° 0 mm 1 mps 607 mmHg 68%
    04:00 +10°C° 0 mm 1 mps 607 mmHg 63%
    05:00 +12°C° 0 mm 1 mps 608 mmHg 58%
    06:00 +14°C° 0 mm 1 mps 609 mmHg 54%
    07:00 +15°C° 0 mm 1 mps 609 mmHg 54%
    08:00 +16°C° 0 mm 2 mps 610 mmHg 54%
    09:00 +17°C° 0 mm 2 mps 610 mmHg 54%
    10:00 +18°C° 0 mm 3 mps 610 mmHg 52%
    11:00 +19°C° 0 mm 3 mps 610 mmHg 51%
    12:00 +20°C° 0 mm 3 mps 610 mmHg 49%
    13:00 +20°C° 0 mm 3 mps 609 mmHg 46%
    14:00 +20°C° 0 mm 3 mps 609 mmHg 44%
    15:00 +20°C° 0 mm 3 mps 609 mmHg 42%
    16:00 +19°C° 0 mm 3 mps 608 mmHg 47%
    17:00 +18°C° 0 mm 2 mps 608 mmHg 53%
    18:00 +17°C° 0 mm 2 mps 607 mmHg 58%
    19:00 +15°C° 0 mm 2 mps 606 mmHg 62%
    20:00 +13°C° 0 mm 1 mps 606 mmHg 66%
    21:00 +11°C° 0 mm 1 mps 605 mmHg 70%
    22:00 +11°C° 0 mm 1 mps 605 mmHg 69%
    23:00 +11°C° 0 mm 1 mps 604 mmHg 68%

    Day after tomorrow, 2 June, Tuesday

    Time Temperature Precipitation Wind Pressure Humidity
    00:00 +11°C° 0 mm 1 mps 604 mmHg 67%
    01:00 +10°C° 0 mm 1 mps 604 mmHg 67%
    02:00 +10°C° 0 mm 1 mps 604 mmHg 66%
    03:00 +10°C° 0 mm 1 mps 604 mmHg 66%
    04:00 +12°C° 0 mm 1 mps 604 mmHg 63%
    05:00 +14°C° 0 mm 1 mps 605 mmHg 59%
    06:00 +15°C° 0 mm 1 mps 606 mmHg 56%
    07:00 +17°C° 0 mm 2 mps 606 mmHg 51%
    08:00 +19°C° 0 mm 3 mps 607 mmHg 45%
    09:00 +20°C° 0 mm 4 mps 608 mmHg 39%
    10:00 +21°C° 0 mm 4 mps 608 mmHg 38%
    11:00 +21°C° 0 mm 5 mps 608 mmHg 36%
    12:00 +22°C° 0 mm 6 mps 608 mmHg 35%
    13:00 +22°C° 0 mm 5 mps 608 mmHg 35%
    14:00 +22°C° 0 mm 4 mps 607 mmHg 35%
    15:00 +22°C° 0 mm 3 mps 607 mmHg 35%
    16:00 +18°C° 2.1 mm 3 mps 606 mmHg 53%
    17:00 +14°C° 2.1 mm 4 mps 605 mmHg 70%
    18:00 +11°C° 2.1 mm 4 mps 604 mmHg 87%
    19:00 +11°C° 0.8 mm 3 mps 604 mmHg 85%
    20:00 +11°C° 0.8 mm 3 mps 604 mmHg 83%
    21:00 +12°C° 0.8 mm 2 mps 604 mmHg 80%
    22:00 +12°C° 0.3 mm 2 mps 604 mmHg 79%
    23:00 +12°C° 0.3 mm 2 mps 603 mmHg 78%

    3 June, Wednesday

    Time Temperature Precipitation Wind Pressure Humidity
    00:00 +10°C° 0.3 mm 2 mps 603 mmHg 77%
    01:00 +10°C° 0.1 mm 2 mps 603 mmHg 76%
    02:00 +11°C° 0.1 mm 1 mps 602 mmHg 75%
    03:00 +11°C° 0.1 mm 1 mps 602 mmHg 75%
    04:00 +12°C° 0.1 mm 1 mps 603 mmHg 73%
    05:00 +13°C° 0.1 mm 1 mps 603 mmHg 72%
    06:00 +15°C° 0.1 mm 2 mps 604 mmHg 71%
    07:00 +16°C° 0 mm 2 mps 604 mmHg 64%
    08:00 +18°C° 0 mm 3 mps 605 mmHg 56%
    09:00 +19°C° 0 mm 3 mps 605 mmHg 49%
    10:00 +20°C° 0 mm 3 mps 606 mmHg 44%
    11:00 +21°C° 0 mm 3 mps 606 mmHg 40%
    12:00 +21°C° 0 mm 4 mps 606 mmHg 36%
    13:00 +21°C° 0 mm 3 mps 606 mmHg 34%
    14:00 +21°C° 0 mm 3 mps 606 mmHg 33%
    15:00 +21°C° 0 mm 3 mps 606 mmHg 31%
    16:00 +20°C° 0 mm 3 mps 605 mmHg 39%
    17:00 +18°C° 0 mm 3 mps 605 mmHg 47%
    18:00 +17°C° 0 mm 2 mps 605 mmHg 55%
    19:00 +16°C° 0.1 mm 2 mps 604 mmHg 57%
    20:00 +14°C° 0.1 mm 2 mps 604 mmHg 58%
    21:00 +13°C° 0.1 mm 2 mps 603 mmHg 60%
    22:00 +12°C° 0.2 mm 2 mps 604 mmHg 64%
    23:00 +12°C° 0.2 mm 2 mps 604 mmHg 68%

    4 June, Thursday

    Time Temperature Precipitation Wind Pressure Humidity
    00:00 +10°C° 0.2 mm 2 mps 604 mmHg 71%
    01:00 +10°C° 0.1 mm 2 mps 604 mmHg 74%
    02:00 +9°C° 0.1 mm 2 mps 604 mmHg 77%
    03:00 +9°C° 0.1 mm 2 mps 604 mmHg 79%
    04:00 +11°C° 0 mm 1 mps 605 mmHg 75%
    05:00 +12°C° 0 mm 1 mps 606 mmHg 71%
    06:00 +14°C° 0 mm 1 mps 607 mmHg 66%
    07:00 +15°C° 0 mm 2 mps 608 mmHg 58%
    08:00 +16°C° 0 mm 2 mps 608 mmHg 50%
    09:00 +18°C° 0 mm 3 mps 609 mmHg 42%
    10:00 +19°C° 0 mm 3 mps 609 mmHg 40%
    11:00 +19°C° 0 mm 3 mps 610 mmHg 38%
    12:00 +20°C° 0 mm 3 mps 610 mmHg 37%
    13:00 +20°C° 0 mm 3 mps 610 mmHg 36%
    14:00 +20°C° 0 mm 3 mps 610 mmHg 34%
    15:00 +20°C° 0 mm 3 mps 610 mmHg 33%
    16:00 +19°C° 0 mm 3 mps 610 mmHg 39%
    17:00 +18°C° 0 mm 3 mps 609 mmHg 46%
    18:00 +17°C° 0 mm 3 mps 609 mmHg 52%
    19:00 +15°C° 0 mm 2 mps 608 mmHg 59%
    20:00 +13°C° 0 mm 2 mps 607 mmHg 67%
    21:00 +11°C° 0 mm 1 mps 607 mmHg 75%
    22:00 +11°C° 0 mm 1 mps 607 mmHg 73%
    23:00 +10°C° 0 mm 1 mps 607 mmHg 72%

    5 June, Friday

    Time Temperature Precipitation Wind Pressure Humidity
    00:00 +10°C° 0 mm 1 mps 607 mmHg 70%
    01:00 +10°C° 0 mm 1 mps 607 mmHg 72%
    02:00 +10°C° 0 mm 1 mps 607 mmHg 74%
    03:00 +10°C° 0 mm 1 mps 607 mmHg 76%
    04:00 +11°C° 0 mm 1 mps 608 mmHg 74%
    05:00 +12°C° 0 mm 1 mps 609 mmHg 72%
    06:00 +14°C° 0 mm 1 mps 610 mmHg 71%
    07:00 +15°C° 0.1 mm 1 mps 611 mmHg 64%
    08:00 +16°C° 0.1 mm 2 mps 611 mmHg 58%
    09:00 +18°C° 0.1 mm 3 mps 612 mmHg 52%
    10:00 +18°C° 0.1 mm 3 mps 612 mmHg 49%
    11:00 +18°C° 0.1 mm 3 mps 612 mmHg 47%
    12:00 +19°C° 0.1 mm 3 mps 613 mmHg 45%
    13:00 +19°C° 0.1 mm 4 mps 613 mmHg 44%
    14:00 +19°C° 0.1 mm 4 mps 613 mmHg 43%
    15:00 +19°C° 0.1 mm 4 mps 613 mmHg 43%
    16:00 +18°C° 0.4 mm 3 mps 612 mmHg 51%
    17:00 +17°C° 0.4 mm 3 mps 612 mmHg 59%
    18:00 +15°C° 0.4 mm 2 mps 612 mmHg 67%
    19:00 +14°C° 0.7 mm 2 mps 612 mmHg 75%
    20:00 +12°C° 0.7 mm 2 mps 611 mmHg 82%
    21:00 +10°C° 0.7 mm 1 mps 611 mmHg 90%
    22:00 +10°C° 0.6 mm 1 mps 611 mmHg 91%
    23:00 +10°C° 0.6 mm 1 mps 611 mmHg 93%
    Show more